Time,TemperatureF,DewpointF,PressureIn,WindDirection,WindDirectionDegrees,WindSpeedMPH,WindSpeedGustMPH,Humidity,HourlyPrecipIn,Conditions,Clouds,dailyrainin,SoftwareType,DateUTC
2014-04-18 00:02:00,38.8,25.0,30.57,SE,146,0.0,1.0,58,0.00,,,0.00,weatherlink.com 1.10,2014-04-18 04:02:00,
2014-04-18 00:17:00,38.3,25.0,30.57,SE,142,0.0,2.0,59,0.00,,,0.00,weatherlink.com 1.10,2014-04-18 04:17:00,
2014-04-18 00:32:00,37.9,25.0,30.57,SSE,154,5.0,8.0,60,0.00,,,0.00,weatherlink.com 1.10,2014-04-18 04:32:00,
2014-04-18 00:47:00,37.3,25.0,30.57,SSE,156,0.0,11.0,61,0.00,,,0.00,weatherlink.com 1.10,2014-04-18 04:47:00,
2014-04-18 01:02:00,36.9,25.0,30.56,SSE,152,0.0,9.0,62,0.00,,,0.00,weatherlink.com 1.10,2014-04-18 05:02:00,
2014-04-18 01:17:00,36.4,25.0,30.57,SSW,196,0.0,8.0,63,0.00,,,0.00,weatherlink.com 1.10,2014-04-18 05:17:00,
2014-04-18 01:32:00,35.9,25.0,30.57,SE,144,0.0,7.0,64,0.00,,,0.00,weatherlink.com 1.10,2014-04-18 05:32:00,
2014-04-18 01:47:00,35.5,25.0,30.57,SE,143,0.0,1.0,65,0.00,,,0.00,weatherlink.com 1.10,2014-04-18 05:47:00,
2014-04-18 02:02:00,35.1,25.0,30.57,SSE,148,0.0,1.0,66,0.00,,,0.00,weatherlink.com 1.10,2014-04-18 06:02:00,
2014-04-18 02:17:00,34.8,24.0,30.58,SSE,159,0.0,1.0,66,0.00,,,0.00,weatherlink.com 1.10,2014-04-18 06:17:00,
2014-04-18 02:32:00,34.4,24.0,30.57,SSE,159,0.0,0.0,66,0.00,,,0.00,weatherlink.com 1.10,2014-04-18 06:32:00,
2014-04-18 02:47:00,33.9,24.0,30.57,SSE,159,0.0,0.0,67,0.00,,,0.00,weatherlink.com 1.10,2014-04-18 06:47:00,
2014-04-18 03:02:00,33.2,24.0,30.57,SSE,159,0.0,0.0,69,0.00,,,0.00,weatherlink.com 1.10,2014-04-18 07:02:00,
2014-04-18 03:17:00,32.6,24.0,30.56,SSE,159,0.0,0.0,70,0.00,,,0.00,weatherlink.com 1.10,2014-04-18 07:17:00,
2014-04-18 03:32:00,31.9,24.0,30.57,SSE,159,0.0,0.0,72,0.00,,,0.00,weatherlink.com 1.10,2014-04-18 07:32:00,
2014-04-18 03:47:00,31.3,24.0,30.56,SSE,159,0.0,0.0,73,0.00,,,0.00,weatherlink.com 1.10,2014-04-18 07:47:00,
2014-04-18 04:02:00,30.8,23.0,30.54,SSE,159,0.0,0.0,73,0.00,,,0.00,weatherlink.com 1.10,2014-04-18 08:02:00,
2014-04-18 04:17:00,30.4,23.0,30.53,SSE,159,0.0,0.0,74,0.00,,,0.00,weatherlink.com 1.10,2014-04-18 08:17:00,
2014-04-18 04:32:00,30.1,23.0,30.52,SSE,159,0.0,0.0,75,0.00,,,0.00,weatherlink.com 1.10,2014-04-18 08:32:00,
2014-04-18 04:47:00,29.8,23.0,30.52,SSE,159,0.0,0.0,77,0.00,,,0.00,weatherlink.com 1.10,2014-04-18 08:47:00,
2014-04-18 05:02:00,29.6,24.0,30.50,SSE,159,0.0,0.0,78,0.00,,,0.00,weatherlink.com 1.10,2014-04-18 09:02:00,
2014-04-18 05:17:00,29.2,23.0,30.50,SSE,159,0.0,0.0,78,0.00,,,0.00,weatherlink.com 1.10,2014-04-18 09:17:00,
2014-04-18 05:32:00,28.7,23.0,30.48,SSE,159,0.0,0.0,78,0.00,,,0.00,weatherlink.com 1.10,2014-04-18 09:32:00,
2014-04-18 05:47:00,28.3,23.0,30.47,SSE,159,0.0,0.0,80,0.00,,,0.00,weatherlink.com 1.10,2014-04-18 09:47:00,
2014-04-18 06:02:00,27.9,23.0,30.47,North,9,0.0,0.0,81,0.00,,,0.00,weatherlink.com 1.10,2014-04-18 10:02:00,
2014-04-18 06:17:00,27.6,23.0,30.48,North,9,0.0,0.0,82,0.00,,,0.00,weatherlink.com 1.10,2014-04-18 10:17:00,
2014-04-18 06:32:00,27.4,23.0,30.48,North,9,0.0,0.0,82,0.00,,,0.00,weatherlink.com 1.10,2014-04-18 10:32:00,
2014-04-18 06:47:00,27.6,24.0,30.48,North,9,0.0,0.0,85,0.00,,,0.00,weatherlink.com 1.10,2014-04-18 10:47:00,
2014-04-18 07:02:00,28.5,25.0,30.48,North,9,0.0,0.0,85,0.00,,,0.00,weatherlink.com 1.10,2014-04-18 11:02:00,
2014-04-18 07:17:00,30.1,26.0,30.48,North,9,0.0,0.0,83,0.00,,,0.00,weatherlink.com 1.10,2014-04-18 11:17:00,
2014-04-18 07:32:00,31.7,26.0,30.48,SSE,150,0.0,0.0,78,0.00,,,0.00,weatherlink.com 1.10,2014-04-18 11:32:00,
2014-04-18 07:47:00,33.2,25.0,30.49,SSE,165,0.0,0.0,72,0.00,,,0.00,weatherlink.com 1.10,2014-04-18 11:47:00,
2014-04-18 08:02:00,33.8,24.0,30.50,South,174,0.0,5.0,68,0.00,,,0.00,weatherlink.com 1.10,2014-04-18 12:02:00,